Precipitable_Water
0.63 0.70 0.71 0.71 0.76 0.79 0.79 0.78 0.79 0.78 0.75 0.73 0.70 0.69 0.76 0.84 0.86 0.90 0.67 0.63 0.80 0.82 0.92 0.76 0.65 0.78 0.98 0.90 1.05 1.00 0.69 0.61 0.62 0.59 0.64 0.79 0.71 0.69 0.64 0.57 0.60 0.71 0.78 0.99 1.23
0.67 0.69 0.70 0.71 0.71 0.74 0.78 0.83 0.81 0.77 0.75 0.71 0.70 0.71 0.72 0.79 0.70 0.61 0.82 0.77 0.82 0.96 0.80 0.67 0.51 0.67 0.69 0.75 0.86 0.80 0.69 0.65 0.74 0.74 0.78 0.82 0.77 0.72 0.59 0.60 0.64 0.70 1.00 1.19 1.26
0.67 0.67 0.70 0.69 0.70 0.70 0.70 0.79 0.85 0.82 0.77 0.75 0.71 0.68 0.70 0.71 0.53 0.51 0.70 0.84 0.76 0.87 0.91 0.74 0.62 0.65 0.59 0.74 0.74 0.76 0.61 0.79 0.82 0.87 0.93 0.87 0.81 0.79 0.60 0.57 0.64 0.62 0.81 1.04 1.16
0.66 0.67 0.68 0.66 0.68 0.72 0.71 0.72 0.81 0.79 0.77 0.73 0.70 0.66 0.66 0.60 0.26 0.65 0.67 0.82 0.87 0.84 0.86 0.73 0.54 0.49 0.55 0.52 0.70 0.61 0.74 0.77 0.81 0.93 0.95 0.88 0.89 0.77 0.66 0.65 0.66 0.73 0.77 0.81 0.86
0.64 0.67 0.64 0.67 0.68 0.70 0.70 0.74 0.79 0.78 0.73 0.70 0.66 0.65 0.61 0.44 0.39 0.66 0.72 0.71 0.74 0.76 0.78 0.79 0.47 0.44 0.45 0.55 0.66 0.64 0.66 0.72 0.76 0.78 0.82 0.90 0.86 0.78 0.70 0.76 0.76 0.83 0.86 0.80 0.83
0.65 0.66 0.64 0.66 0.66 0.68 0.68 0.70 0.71 0.65 0.66 0.67 0.71 0.67 0.51 0.34 0.55 0.63 0.76 0.70 0.69 0.69 0.78 0.84 0.60 0.55 0.52 0.55 0.60 0.68 0.68 0.70 0.77 0.70 0.77 0.77 0.83 0.76 0.74 0.77 0.81 0.81 0.86 0.81 0.83
0.64 0.64 0.62 0.63 0.64 0.62 0.63 0.61 0.59 0.61 0.64 0.66 0.64 0.58 0.46 0.38 0.61 0.64 0.70 0.71 0.76 0.71 0.73 0.86 0.80 0.57 0.50 0.49 0.67 0.68 0.56 0.66 0.66 0.68 0.67 0.71 0.67 0.69 0.74 0.76 0.71 0.75 0.72 0.69 0.66
0.64 0.64 0.63 0.59 0.62 0.56 0.55 0.55 0.59 0.59 0.60 0.62 0.65 0.56 0.34 0.57 0.63 0.64 0.70 0.69 0.73 0.78 0.79 0.93 0.94 0.57 0.54 0.63 0.57 0.60 0.54 0.47 0.58 0.64 0.67 0.62 0.47 0.63 0.70 0.69 0.67 0.68 0.67 0.65 0.61
0.65 0.63 0.62 0.58 0.61 0.63 0.63 0.60 0.56 0.55 0.56 0.59 0.51 0.45 0.31 0.58 0.52 0.62 0.66 0.58 0.65 0.78 0.90 1.01 0.93 0.59 0.57 0.47 0.43 0.54 0.40 0.42 0.49 0.62 0.61 0.56 0.45 0.58 0.66 0.63 0.63 0.65 0.65 0.62 0.61
0.62 0.63 0.63 0.60 0.60 0.68 0.69 0.65 0.59 0.59 0.59 0.59 0.54 0.39 0.43 0.38 0.47 0.54 0.59 0.64 0.62 0.73 0.77 0.80 0.73 0.51 0.48 0.40 0.25 0.30 0.34 0.39 0.40 0.51 0.56 0.51 0.48 0.50 0.54 0.56 0.58 0.61 0.61 0.57 0.57
0.59 0.64 0.64 0.59 0.60 0.66 0.64 0.59 0.46 0.42 0.46 0.36 0.37 0.35 0.40 0.47 0.49 0.49 0.57 0.56 0.61 0.63 0.55 0.69 0.52 0.35 0.34 0.42 0.42 0.40 0.38 0.38 0.43 0.51 0.48 0.47 0.50 0.53 0.53 0.52 0.51 0.53 0.55 0.56 0.54
0.56 0.63 0.64 0.63 0.61 0.63 0.58 0.49 0.52 0.52 0.32 0.39 0.39 0.42 0.44 0.48 0.34 0.47 0.58 0.42 0.49 0.46 0.59 0.56 0.39 0.47 0.49 0.47 0.43 0.42 0.36 0.37 0.44 0.48 0.46 0.45 0.44 0.54 0.58 0.54 0.53 0.52 0.54 0.56 0.56
0.52 0.63 0.66 0.64 0.65 0.60 0.53 0.53 0.67 0.68 0.42 0.43 0.48 0.40 0.42 0.46 0.37 0.43 0.52 0.49 0.47 0.47 0.51 0.46 0.45 0.53 0.45 0.42 0.37 0.38 0.36 0.37 0.38 0.45 0.48 0.43 0.38 0.44 0.51 0.58 0.58 0.56 0.55 0.55 0.54
0.46 0.59 0.67 0.67 0.57 0.58 0.54 0.65 0.71 0.69 0.36 0.39 0.44 0.43 0.47 0.48 0.37 0.55 0.57 0.50 0.48 0.45 0.52 0.50 0.54 0.47 0.43 0.39 0.42 0.32 0.43 0.41 0.39 0.38 0.31 0.43 0.26 0.34 0.43 0.49 0.56 0.55 0.54 0.53 0.54
0.45 0.55 0.66 0.68 0.56 0.51 0.60 0.71 0.72 0.65 0.21 0.45 0.48 0.68 0.57 0.45 0.43 0.45 0.58 0.53 0.44 0.46 0.51 0.47 0.46 0.43 0.40 0.38 0.47 0.38 0.43 0.37 0.36 0.35 0.35 0.36 0.31 0.29 0.37 0.40 0.44 0.49 0.52 0.50 0.53
0.53 0.54 0.64 0.62 0.63 0.63 0.70 0.72 0.64 0.30 0.21 0.39 0.50 0.46 0.44 0.47 0.47 0.55 0.58 0.65 0.63 0.55 0.58 0.52 0.62 0.54 0.49 0.49 0.50 0.49 0.41 0.39 0.40 0.37 0.26 0.31 0.30 0.27 0.28 0.33 0.38 0.45 0.51 0.49 0.54
0.51 0.56 0.63 0.64 0.49 0.66 0.68 0.55 0.26 0.19 0.42 0.36 0.42 0.49 0.49 0.44 0.46 0.52 0.48 0.46 0.42 0.38 0.39 0.48 0.49 0.56 0.57 0.44 0.49 0.46 0.35 0.26 0.25 0.26 0.21 0.34 0.30 0.26 0.31 0.35 0.39 0.42 0.48 0.50 0.54
0.50 0.60 0.61 0.64 0.67 0.67 0.57 0.34 0.17 0.30 0.35 0.50 0.50 0.51 0.39 0.48 0.49 0.51 0.47 0.40 0.46 0.47 0.37 0.31 0.30 0.45 0.52 0.45 0.39 0.39 0.34 0.24 0.19 0.20 0.24 0.33 0.23 0.24 0.35 0.39 0.44 0.47 0.51 0.54 0.56
0.54 0.57 0.54 0.62 0.68 0.64 0.41 0.19 0.22 0.29 0.40 0.41 0.43 0.40 0.41 0.45 0.47 0.47 0.45 0.41 0.44 0.45 0.33 0.29 0.31 0.49 0.51 0.52 0.50 0.40 0.33 0.40 0.29 0.29 0.23 0.25 0.27 0.30 0.34 0.36 0.41 0.44 0.48 0.52 0.56
0.49 0.51 0.48 0.66 0.68 0.55 0.29 0.22 0.29 0.39 0.44 0.44 0.33 0.39 0.36 0.41 0.41 0.39 0.40 0.46 0.43 0.49 0.49 0.38 0.28 0.45 0.50 0.55 0.55 0.49 0.51 0.34 0.34 0.21 0.19 0.22 0.21 0.19 0.26 0.31 0.39 0.43 0.48 0.52 0.56
0.50 0.39 0.56 0.71 0.68 0.40 0.22 0.26 0.34 0.42 0.44 0.39 0.35 0.35 0.38 0.37 0.41 0.37 0.36 0.41 0.47 0.46 0.46 0.38 0.31 0.34 0.45 0.40 0.39 0.44 0.41 0.40 0.37 0.31 0.22 0.19 0.22 0.30 0.27 0.32 0.37 0.45 0.51 0.52 0.57
0.42 0.30 0.63 0.72 0.36 0.36 0.28 0.33 0.40 0.40 0.46 0.42 0.44 0.39 0.36 0.37 0.36 0.36 0.37 0.40 0.49 0.48 0.42 0.49 0.40 0.28 0.32 0.49 0.56 0.53 0.45 0.41 0.31 0.27 0.29 0.26 0.23 0.33 0.35 0.41 0.44 0.48 0.52 0.55 0.59
0.35 0.40 0.65 0.65 0.30 0.31 0.36 0.36 0.40 0.38 0.38 0.37 0.36 0.39 0.41 0.35 0.30 0.36 0.39 0.49 0.52 0.50 0.47 0.51 0.38 0.29 0.30 0.38 0.49 0.44 0.47 0.46 0.42 0.38 0.28 0.24 0.23 0.34 0.35 0.39 0.47 0.49 0.54 0.58 0.59
0.35 0.26 0.43 0.49 0.48 0.39 0.36 0.33 0.34 0.42 0.39 0.40 0.36 0.39 0.35 0.33 0.36 0.32 0.35 0.44 0.50 0.48 0.51 0.49 0.42 0.34 0.27 0.31 0.37 0.37 0.43 0.46 0.43 0.33 0.31 0.30 0.30 0.35 0.38 0.37 0.42 0.46 0.51 0.54 0.56
0.32 0.26 0.35 0.31 0.37 0.39 0.41 0.39 0.33 0.33 0.41 0.42 0.36 0.36 0.33 0.27 0.30 0.31 0.36 0.39 0.44 0.45 0.46 0.42 0.31 0.38 0.37 0.39 0.40 0.40 0.41 0.43 0.39 0.41 0.34 0.35 0.35 0.40 0.42 0.43 0.44 0.46 0.47 0.49 0.52
0.28 0.27 0.30 0.28 0.43 0.41 0.40 0.39 0.37 0.37 0.37 0.36 0.34 0.37 0.37 0.32 0.33 0.31 0.35 0.35 0.34 0.40 0.38 0.41 0.30 0.32 0.30 0.34 0.33 0.30 0.35 0.41 0.41 0.42 0.41 0.40 0.37 0.44 0.43 0.43 0.43 0.41 0.46 0.48 0.51
0.35 0.39 0.35 0.32 0.36 0.39 0.38 0.38 0.40 0.42 0.42 0.44 0.42 0.38 0.35 0.39 0.43 0.43 0.44 0.42 0.39 0.35 0.34 0.32 0.29 0.27 0.22 0.29 0.27 0.21 0.25 0.28 0.32 0.37 0.38 0.30 0.33 0.38 0.36 0.38 0.41 0.42 0.48 0.48 0.50
Wind_Speed
34 34 34 34 34 33 32 31 30 29 29 29 29 29 29 29 31 31 33 33 32 28 25 29 33 34 34 36 36 34 35 37 36 31 26 21 20 21 21 21 20 19 20 22 21
37 36 37 38 38 35 31 28 26 27 27 28 29 29 29 29 31 35 32 34 35 31 27 28 31 33 34 34 37 33 33 41 43 38 25 26 24 21 21 23 21 20 19 21 21
38 38 40 42 39 34 29 25 22 21 22 23 25 28 29 30 30 32 35 34 36 34 30 28 30 31 33 35 34 35 39 37 35 34 30 28 27 24 22 23 25 25 23 22 22
39 40 43 42 40 32 26 20 16 16 16 17 19 23 26 29 28 24 32 34 34 38 35 29 29 31 32 35 36 33 36 36 36 31 28 28 28 28 22 24 26 26 26 23 23
39 40 42 42 39 32 23 17 10 9 9 10 12 16 21 26 31 29 29 31 32 42 39 33 31 32 31 32 36 31 33 33 31 35 35 29 27 28 23 24 25 26 26 25 24
38 39 40 41 38 32 25 16 9 7 6 6 6 9 14 20 26 29 31 27 33 43 40 36 31 30 29 29 34 33 28 35 29 30 31 32 30 26 26 25 23 25 27 26 25
37 36 37 39 36 31 26 20 11 6 4 4 4 5 8 14 19 26 29 26 33 42 39 36 29 32 26 25 30 26 35 26 35 29 29 29 31 30 27 24 24 24 25 25 24
36 35 35 34 34 31 26 21 14 6 2 1 2 4 6 8 14 22 26 28 31 38 38 35 30 33 24 21 26 25 29 29 30 31 28 29 30 30 28 28 28 26 25 26 26
35 34 32 31 31 30 26 20 14 7 3 3 4 4 6 5 10 15 25 29 31 34 35 33 30 30 27 23 23 24 25 30 28 32 26 28 26 30 29 30 32 30 28 28 27
34 33 31 28 28 28 27 21 15 10 5 3 3 3 4 5 10 14 23 28 31 31 34 33 29 29 27 26 27 30 24 28 29 32 30 28 27 26 28 31 33 32 30 29 28
34 32 29 27 25 26 25 21 17 13 7 3 2 3 4 5 8 15 21 29 30 30 32 34 31 35 34 27 19 22 18 24 25 27 27 28 26 28 26 26 29 33 32 30 29
34 31 28 25 23 24 22 19 17 16 13 7 4 5 4 5 8 16 22 29 30 29 31 28 32 28 26 26 18 21 18 19 21 23 27 27 30 28 28 28 26 28 31 30 28
33 30 27 23 22 20 20 17 14 17 16 15 11 3 2 5 10 17 21 29 29 29 25 26 27 26 27 25 21 18 20 16 16 19 22 22 27 29 30 31 30 28 28 29 29
32 29 26 22 18 19 18 14 11 12 15 15 13 11 7 8 13 19 21 25 26 28 23 22 25 26 25 24 20 16 17 17 17 16 21 21 21 27 30 30 32 30 29 29 30
32 27 22 19 17 16 16 14 10 12 13 15 14 13 13 10 17 18 22 22 26 26 22 21 26 28 25 24 21 17 16 16 15 16 16 19 20 24 23 28 31 31 30 28 28
32 25 19 16 15 13 14 14 10 13 14 13 12 12 13 16 17 17 20 21 21 20 19 20 21 21 19 20 19 15 13 9 10 13 16 21 21 22 25 27 28 27 30 28 27
32 22 17 14 12 11 10 11 10 13 9 13 13 13 14 12 13 14 16 16 18 20 18 18 18 18 19 18 18 16 14 9 11 14 16 17 20 27 21 24 26 27 28 27 26
30 21 15 13 10 9 8 9 12 9 10 12 11 12 11 13 12 14 14 14 17 19 19 17 19 18 17 18 17 18 16 12 12 13 15 15 21 24 23 25 24 25 28 26 25
27 20 16 13 8 7 4 7 6 5 5 7 10 10 10 9 11 10 10 11 16 18 14 15 14 17 16 18 17 17 16 15 9 8 10 18 21 21 19 23 24 23 23 25 24
25 19 17 12 7 6 4 3 3 5 5 5 6 7 9 7 7 8 9 10 12 14 13 14 12 17 16 17 20 18 17 14 11 9 11 13 16 20 20 22 23 23 24 23 24
25 20 18 13 7 4 2 2 2 3 4 3 5 6 7 7 6 6 7 9 11 12 10 12 11 15 17 19 19 19 19 16 12 9 9 10 13 15 22 23 23 22 23 23 23
25 21 19 13 8 3 2 1 2 2 4 3 3 3 4 6 7 7 8 6 8 11 10 8 10 14 15 16 19 16 20 19 13 13 12 9 12 9 16 19 21 21 22 21 22
25 21 19 13 9 4 3 3 2 3 4 4 2 2 2 3 5 5 6 7 8 8 10 9 7 8 11 14 15 19 18 18 14 11 15 12 11 8 10 15 19 20 20 21 21
25 21 19 14 9 6 4 5 4 3 5 5 4 3 2 2 1 3 4 5 6 6 6 7 8 8 10 11 15 18 21 20 17 14 13 14 13 11 12 13 16 18 18 19 19
26 22 19 16 10 8 7 7 6 5 5 5 5 5 4 3 3 3 4 5 5 6 6 6 7 7 6 7 9 13 16 20 21 23 16 14 15 15 16 15 16 17 17 17 18
25 23 21 16 12 9 6 7 6 7 6 6 6 5 5 5 5 6 5 7 7 8 7 7 7 7 7 8 8 10 13 16 17 17 18 14 14 14 14 13 13 15 16 17 17
26 24 21 19 13 9 7 9 8 8 9 8 8 6 6 6 4 4 5 5 6 8 8 8 9 9 10 8 9 11 16 16 16 18 19 18 16 13 15 15 16 16 16 16 16
Wind_Direction
345 341 336 330 323 314 302 291 280 270 263 258 253 249 242 237 232 228 225 221 218 217 218 211 210 209 209 208 207 208 212 213 211 208 202 214 214 212 215 205 211 214 208 202 199
347 344 340 335 328 319 308 294 283 272 263 257 252 246 242 237 232 228 224 221 217 215 216 210 208 207 208 209 208 208 212 212 213 209 209 217 219 222 215 209 211 208 204 200 202
350 347 345 339 335 327 316 300 285 277 265 257 250 245 240 235 232 229 224 220 215 213 212 208 206 206 208 207 208 210 212 212 210 210 211 216 221 218 215 212 213 207 205 205 206
352 351 350 349 345 338 330 314 289 282 267 258 251 243 236 229 227 219 215 212 217 211 208 206 203 203 208 207 208 208 209 208 210 206 205 212 222 219 221 214 214 210 206 209 209
354 354 355 355 355 353 346 338 307 291 273 259 251 239 230 229 225 223 219 221 219 205 205 204 202 201 207 207 208 209 208 208 210 211 215 218 220 218 218 217 215 208 209 210 214
355 356 358 1 1 3 0 354 334 303 279 258 252 234 229 228 224 221 216 220 212 199 200 201 202 201 204 206 206 210 209 209 209 209 207 206 214 218 212 212 210 206 208 213 217
355 356 359 3 7 9 10 7 359 335 281 247 233 231 230 229 219 213 213 212 202 197 198 200 201 199 202 205 208 212 207 207 209 208 211 205 209 216 211 211 211 212 211 213 217
354 355 358 2 6 8 9 11 12 11 23 194 241 242 239 230 220 207 204 203 194 194 198 197 198 199 200 206 199 206 205 206 209 206 209 207 213 213 215 214 217 218 220 221 224
354 354 357 0 5 8 8 9 10 5 331 280 279 258 234 231 188 196 197 194 188 192 193 193 194 197 198 200 198 209 206 209 208 208 208 209 215 218 221 220 222 223 225 227 229
353 354 355 358 2 5 5 5 5 1 341 313 268 245 217 211 201 197 192 187 186 189 187 190 192 193 197 198 201 202 209 211 210 210 213 215 219 219 222 225 226 226 229 231 233
353 353 354 356 360 3 7 14 13 8 356 314 267 240 231 229 207 190 186 182 182 190 185 188 187 196 197 196 202 197 202 207 214 212 214 218 221 226 224 224 226 227 228 232 234
352 353 353 356 359 1 9 16 30 35 31 16 278 240 232 218 188 181 179 178 181 183 185 184 191 188 188 193 196 194 201 208 213 215 216 222 227 225 228 227 224 225 226 229 231
352 352 353 355 359 8 12 19 37 42 38 40 44 69 170 173 172 170 175 172 178 179 174 178 183 184 188 193 197 201 203 205 210 215 221 222 233 227 228 228 229 229 228 229 230
350 351 353 358 2 10 15 21 37 37 41 42 51 62 88 134 151 158 162 168 170 178 179 186 183 183 188 195 196 201 204 209 214 214 220 220 232 229 226 229 228 229 229 230 231
350 348 352 360 4 12 18 31 41 44 54 38 51 65 82 112 140 152 159 160 170 176 188 183 179 184 189 194 195 203 207 212 220 218 220 226 230 231 223 227 228 227 228 230 230
349 348 352 358 4 11 22 34 56 56 52 48 56 65 81 99 129 142 155 158 166 171 163 171 180 182 190 190 196 202 197 208 220 223 233 228 223 231 226 229 230 229 226 228 229
350 349 351 356 5 16 29 45 59 67 61 51 61 72 90 118 128 143 155 164 164 160 165 168 178 183 186 187 197 203 195 219 227 230 233 229 229 232 230 230 229 224 221 224 228
353 354 354 357 4 14 35 57 67 72 74 65 63 71 79 88 106 133 147 160 171 156 156 169 180 190 195 195 202 207 207 211 225 234 236 236 236 234 232 234 226 219 219 223 226
356 358 354 355 358 13 30 54 107 103 92 61 50 64 90 100 108 114 126 142 163 177 182 185 191 193 201 201 202 211 212 221 225 249 244 240 246 244 230 224 218 215 216 220 224
357 357 354 351 347 1 30 93 97 107 97 85 55 81 82 95 113 128 137 145 152 172 178 185 188 205 200 207 218 215 213 218 233 233 248 250 245 233 225 219 218 219 220 222 224
356 356 353 348 342 346 43 179 190 150 135 100 82 91 84 99 116 112 140 155 167 169 181 184 189 193 196 208 203 209 213 213 221 229 241 253 250 238 225 219 214 215 216 219 223
354 353 351 348 341 328 314 202 198 194 161 159 123 105 98 91 89 109 138 151 168 173 176 192 194 201 205 209 214 215 213 214 224 242 247 244 253 255 228 218 216 215 217 222 225
352 349 350 344 340 310 287 269 216 221 215 203 196 136 133 118 104 111 136 156 159 171 180 186 186 186 207 219 219 216 218 218 233 242 239 235 247 252 227 215 217 217 220 223 225
352 352 348 343 333 301 279 252 250 230 231 221 223 205 185 162 125 154 147 163 169 182 194 187 187 190 201 217 211 219 219 223 228 234 237 236 243 246 235 218 217 218 220 223 225
353 353 349 340 328 307 267 256 244 239 225 222 226 219 229 213 210 196 201 204 207 206 203 202 201 205 218 204 206 218 219 221 232 232 231 241 241 244 233 226 222 222 221 221 225
352 351 347 339 325 305 263 252 247 243 235 230 225 241 228 215 223 214 207 217 219 219 217 220 213 212 229 220 220 230 229 227 228 228 237 244 246 240 232 229 222 224 221 223 231
352 349 346 339 329 304 275 244 247 257 234 230 230 233 223 220 225 234 225 218 227 214 221 224 218 222 235 234 244 255 236 228 232 232 232 238 243 241 231 227 224 224 225 231 238